[[[{"header":{"parameterUnit":"kt","parameterCategory":2,"dx":1,"dy":1,"la1":30.253999710083008,"la2":30.299108505249023,"lo1":-89.0895004272461,"lo2":-89.04439544677734,"nx":28,"ny":28,"refTime":"2022-10-05T21:00:00:Z","depth":0,"parameterNumber":1,"parameterNumberName":"U-component_of_WINDS"},"data":[0.8118,0.8136,0.811,0.812,0.8098,0.8101,0.8093,0.8081,0.8065,0.8066,0.8061,0.8038,0.8012,0.8001,0.7996,0.7986,0.7987,0.8012,0.7996,0.7903,0.7888,0.7874,0.7869,0.8012,0.8012,0.8098,0.8099,0.8099,0.8055,0.8034,0.803,0.801,0.8007,0.7967,0.7948,0.7949,0.7952,0.7932,0.7925,0.7924,0.7919,0.7883,0.7875,0.7884,0.7865,0.7884,0.7884,0.7881,0.778,0.7774,0.7899,0.7899,0.7899,0.7899,0.7899,0.7899,0.7933,0.7944,0.7917,0.7913,0.7895,0.7882,0.7888,0.7858,0.7855,0.7842,0.7811,0.7814,0.7789,0.7765,0.7751,0.7753,0.7728,0.7741,0.7744,0.7749,0.7759,0.7644,0.775,0.7749,0.7749,0.7749,0.7748,0,0.7837,0.7814,0.7808,0.7796,0.7791,0.7778,0.7762,0.7766,0.7708,0.7708,0.7706,0.77,0.7688,0.7684,0.7669,0.7651,0.7611,0.7603,0.7612,0.7629,0.7647,0.7641,0.7479,0.76,0.7599,0.7598,0.7597,0.7597,0.7715,0.773,0.7687,0.7687,0.7671,0.7671,0.7666,0.7614,0.7611,0.7584,0.7597,0.759,0.7583,0.7583,0.7548,0.7539,0.752,0.757,0.7519,0.7535,0.7525,0.7526,0.7528,0.7582,0.7584,0.7585,0.7587,0,0.7649,0.7605,0.762,0.7576,0.7565,0.7584,0.7546,0.7555,0.7524,0.7532,0.7531,0.7483,0.7481,0.7437,0.7426,0.7403,0.7438,0.7417,0.7447,0.7441,0.7484,0.7482,0.7622,0.7639,0.7487,0.7488,0.7489,0,0.7529,0.7551,0.7484,0.7495,0.7518,0.7464,0.7489,0.7464,0.744,0.7446,0.7391,0.7398,0.734,0.7341,0.7307,0.7326,0.7323,0.7308,0.73,0.7315,0.7317,0.7315,0.7309,0.7275,0.7274,0.7274,0.7273,0,0.7434,0.7422,0.7439,0.7429,0.7383,0.7393,0.7374,0.7346,0.7342,0.7328,0.7325,0.7312,0.7307,0.7299,0.7256,0.7223,0.7277,0.7223,0.7262,0.7264,0.7278,0.7279,0.7412,0.7272,0.7272,0.7272,0.7272,0,0.7331,0.7317,0.7347,0.7308,0.7307,0.7318,0.7302,0.7301,0.7275,0.7254,0.7243,0.7202,0.7212,0.7163,0.7178,0.7148,0.7146,0.7131,0.7133,0.7134,0.7081,0.7165,0.7293,0.7307,0.7132,0.7131,0.713,0,0.7235,0.7253,0.7206,0.7236,0.7238,0.7177,0.7188,0.7166,0.7139,0.7137,0.7107,0.7106,0.7059,0.7052,0.7065,0.7035,0.7073,0.7027,0.703,0.7031,0.7042,0.7158,0.719,0.727,0.7114,0.7116,0.7117,0,0.7156,0.7098,0.7107,0.7094,0.7055,0.7056,0.7068,0.7054,0.7056,0.7037,0.7047,0.7042,0.7007,0.6997,0.6961,0.6977,0.7046,0.6938,0.6937,0.6962,0.7101,0.7132,0.7145,0.7019,0.702,0.7022,0.7104,0,0.7015,0.7017,0.7037,0.7009,0.7002,0.7016,0.6968,0.6967,0.6934,0.6904,0.6917,0.6886,0.6873,0.6874,0.6842,0.6891,0.6876,0.6839,0.679,0.6865,0.6892,0.6902,0.6755,0.6753,0.6751,0.675,0,0,0.6937,0.6938,0.6886,0.6895,0.6886,0.6821,0.6842,0.6826,0.6795,0.6791,0.6762,0.6752,0.6728,0.6749,0.6769,0.6762,0.6767,0.6742,0.6829,0.6838,0.6846,0.6875,0.6887,0.6747,0.6747,0.6746,0.6746,0,0.6876,0.6851,0.6871,0.6851,0.6821,0.6788,0.6793,0.6751,0.6733,0.6744,0.6692,0.6693,0.6685,0.6668,0.6659,0.6738,0.6699,0.6737,0.6797,0.6816,0.6827,0.6836,0.6867,0.6879,0.6742,0.6742,0.6743,0,0.6791,0.6759,0.6763,0.6738,0.6717,0.672,0.6656,0.6661,0.6663,0.6592,0.6604,0.658,0.6553,0.6577,0.6586,0.6561,0.6641,0.6605,0.6613,0.6614,0.663,0.6643,0.6655,0.65,0.65,0.6499,0,0,0.6745,0.6745,0.6695,0.6721,0.6712,0.6663,0.6659,0.6625,0.6601,0.6591,0.656,0.6539,0.6534,0.6532,0.6524,0.6557,0.6549,0.6578,0.6589,0.6598,0.6605,0.6623,0.6636,0.6497,0.6497,0.6497,0,0,0.6723,0.6666,0.6636,0.666,0.6638,0.6591,0.6609,0.6572,0.656,0.6553,0.6496,0.6488,0.6509,0.6488,0.6462,0.6506,0.6458,0.6463,0.652,0.6533,0.6544,0.655,0.6392,0,0,0,0,0,0.6636,0.6673,0.6646,0.6643,0.6611,0.6606,0.6601,0.6555,0.6522,0.6538,0.6506,0.6464,0.6463,0.6438,0.6436,0.6466,0.6466,0.6471,0.6476,0.6557,0.6572,0.6584,0,0,0,0,0,0,0.6634,0.663,0.6645,0.6601,0.6593,0.6604,0.6538,0.6527,0.6519,0.6511,0.6471,0.6462,0.6423,0.6436,0.6434,0.6465,0.6393,0.6468,0.6472,0.6477,0.6562,0.6574,0.6584,0,0,0,0,0,0.6632,0.6629,0.6589,0.66,0.6593,0.654,0.6536,0.6526,0.652,0.647,0.646,0.6485,0.6425,0.6421,0.6435,0.6466,0.6393,0.6393,0.6471,0.6475,0.6478,0.6568,0,0,0,0,0,0,0.6631,0.662,0.6587,0.6583,0.6582,0.6539,0.653,0.6526,0.6478,0.6469,0.6482,0.6476,0.6427,0.6423,0.6421,0.647,0.6394,0.6393,0.6393,0.6474,0.6477,0.6479,0,0,0,0,0,0,0.6621,0.6617,0.6585,0.6565,0.6558,0.6537,0.653,0.6534,0.6479,0.6492,0.6486,0.648,0.6432,0.6426,0.6423,0.6432,0.6394,0.6394,0.6393,0.6393,0.6476,0.6478,0,0,0,0,0,0,0.6619,0.6615,0.6565,0.6561,0.6555,0.6509,0.654,0.651,0.6461,0.6495,0.6456,0.6453,0.6435,0.6431,0.6425,0.6435,0.6432,0.6394,0.6394,0.6394,0.6393,0,0,0,0,0,0,0,0.6617,0.6651,0.6609,0.6557,0.6552,0.6548,0.6547,0.6546,0.6461,0.6458,0.6456,0.6454,0.6395,0.6395,0.6395,0.6438,0,0,0.6394,0.6394,0,0,0,0,0,0,0,0,0.6652,0.6652,0.6609,0.6608,0.6607,0.6548,0.6547,0.6546,0.646,0.6458,0.6457,0.6455,0.6395,0.6395,0.6395,0,0,0,0,0,0,0,0,0,0,0,0,0,0,0,0.6609,0.6608,0,0.6548,0.6547,0.6547,0.646,0.6458,0.6457,0.6456,0.6395,0.6395,0.6395,0,0,0,0,0,0,0,0,0,0,0,0,0,0,0,0,0,0,0,0,0,0,0,0,0,0,0,0,0,0,0,0,0,0,0,0,0,0,0,0,0,0,0,0,0,0,0,0,0,0,0,0,0,0,0,0,0,0,0,0,0,0,0,0,0,0,0,0,0]}],[{"header":{"parameterUnit":"kt","parameterCategory":2,"dx":1,"dy":1,"la1":30.253999710083008,"la2":30.299108505249023,"lo1":-89.0895004272461,"lo2":-89.04439544677734,"nx":28,"ny":28,"refTime":"2022-10-05T21:00:00:Z","depth":0,"parameterNumber":2,"parameterNumberName":"V-component_of_WINDS"},"data":[-3.8029,-3.8091,-3.8104,-3.818,-3.8204,-3.8258,-3.8281,-3.8313,-3.8341,-3.8406,-3.8445,-3.8464,-3.8496,-3.8546,-3.8589,-3.8596,-3.8613,-3.8626,-3.8632,-3.8565,-3.8556,-3.8548,-3.8535,-3.8629,-3.8629,-3.8699,-3.87,-3.8701,-3.798,-3.8005,-3.8049,-3.81,-3.8138,-3.8134,-3.8174,-3.8206,-3.8253,-3.8288,-3.8328,-3.8386,-3.8433,-3.8461,-3.8508,-3.8536,-3.8537,-3.8548,-3.8546,-3.8551,-3.848,-3.8466,-3.8547,-3.8547,-3.8547,-3.8547,-3.8547,-3.8547,-3.7893,-3.793,-3.7968,-3.8016,-3.8045,-3.8079,-3.8116,-3.8138,-3.8181,-3.8232,-3.8238,-3.8292,-3.8329,-3.8392,-3.8415,-3.8457,-3.8447,-3.8463,-3.8467,-3.8471,-3.8474,-3.8371,-3.8466,-3.8465,-3.8465,-3.8465,-3.8465,0,-3.7834,-3.7843,-3.7885,-3.7932,-3.7968,-3.8005,-3.8041,-3.8064,-3.8085,-3.8119,-3.8169,-3.82,-3.8261,-3.8309,-3.8356,-3.8377,-3.8375,-3.8376,-3.8387,-3.8385,-3.8378,-3.8383,-3.8266,-3.8373,-3.8372,-3.8372,-3.8371,-3.8371,-3.7748,-3.7788,-3.7835,-3.7863,-3.7886,-3.7931,-3.7961,-3.7976,-3.8007,-3.8053,-3.8084,-3.8132,-3.8172,-3.8249,-3.8273,-3.8318,-3.8318,-3.8357,-3.8324,-3.8321,-3.8319,-3.8316,-3.832,-3.8363,-3.8364,-3.8365,-3.8366,0,-3.7698,-3.7719,-3.7786,-3.7827,-3.7839,-3.788,-3.7916,-3.7952,-3.7969,-3.8021,-3.8034,-3.8061,-3.811,-3.8128,-3.8186,-3.8194,-3.8262,-3.826,-3.8249,-3.825,-3.8287,-3.8284,-3.8405,-3.8422,-3.8324,-3.8325,-3.8326,0,-3.7633,-3.7685,-3.7713,-3.775,-3.7809,-3.7823,-3.7881,-3.7901,-3.7933,-3.7974,-3.7975,-3.8014,-3.8031,-3.8072,-3.8083,-3.8142,-3.8153,-3.8162,-3.8164,-3.8162,-3.8161,-3.8178,-3.8173,-3.8168,-3.8167,-3.8167,-3.8166,0,-3.7552,-3.7628,-3.769,-3.771,-3.7759,-3.7788,-3.7809,-3.7845,-3.7873,-3.7913,-3.7931,-3.7976,-3.8,-3.8035,-3.8049,-3.8026,-3.8121,-3.8092,-3.813,-3.813,-3.815,-3.8149,-3.8252,-3.8166,-3.8165,-3.8165,-3.8165,0,-3.7503,-3.7543,-3.7629,-3.767,-3.7689,-3.7729,-3.7774,-3.7813,-3.785,-3.786,-3.7891,-3.7894,-3.7946,-3.7917,-3.7989,-3.7955,-3.7979,-3.7993,-3.7996,-3.8001,-3.7967,-3.8023,-3.812,-3.8131,-3.8007,-3.8005,-3.8004,0,-3.7405,-3.7497,-3.751,-3.759,-3.7635,-3.7634,-3.7679,-3.7711,-3.7729,-3.7769,-3.7787,-3.7832,-3.7814,-3.783,-3.7864,-3.7884,-3.7929,-3.7879,-3.7935,-3.7937,-3.7926,-3.8015,-3.8025,-3.8097,-3.7987,-3.7989,-3.799,0,-3.7332,-3.7392,-3.7405,-3.743,-3.7476,-3.7513,-3.7564,-3.7612,-3.7638,-3.7675,-3.7717,-3.7781,-3.777,-3.7797,-3.7803,-3.7837,-3.7899,-3.782,-3.7821,-3.7834,-3.798,-3.799,-3.8002,-3.7896,-3.7898,-3.79,-3.7977,0,-3.7253,-3.7301,-3.7338,-3.7391,-3.7422,-3.7473,-3.7493,-3.7523,-3.7527,-3.7544,-3.7607,-3.7638,-3.7686,-3.7704,-3.7707,-3.7779,-3.7769,-3.7757,-3.7729,-3.7787,-3.7813,-3.7824,-3.7688,-3.7688,-3.7687,-3.7686,0,0,-3.7154,-3.7224,-3.7236,-3.7286,-3.7314,-3.7311,-3.7364,-3.739,-3.7443,-3.7462,-3.7446,-3.754,-3.7565,-3.764,-3.766,-3.7679,-3.7693,-3.7672,-3.7759,-3.7767,-3.7775,-3.7802,-3.7813,-3.7685,-3.7685,-3.7685,-3.7685,0,-3.7129,-3.7157,-3.7209,-3.7237,-3.7279,-3.7294,-3.7307,-3.7347,-3.736,-3.7422,-3.7418,-3.7458,-3.7532,-3.756,-3.7583,-3.7664,-3.7658,-3.7677,-3.7714,-3.7752,-3.7761,-3.7769,-3.7798,-3.7808,-3.7683,-3.7683,-3.7683,0,-3.7061,-3.7091,-3.7119,-3.7181,-3.7208,-3.7253,-3.7229,-3.7278,-3.7312,-3.7306,-3.7367,-3.7386,-3.7424,-3.7492,-3.7523,-3.751,-3.7625,-3.7591,-3.7596,-3.7599,-3.7638,-3.7648,-3.7658,-3.7533,-3.7533,-3.7532,0,0,-3.7036,-3.7081,-3.7118,-3.7177,-3.7194,-3.7218,-3.7243,-3.725,-3.7285,-3.7298,-3.7323,-3.7357,-3.74,-3.7428,-3.7469,-3.7541,-3.755,-3.7572,-3.7579,-3.7585,-3.7592,-3.7631,-3.7642,-3.753,-3.753,-3.753,0,0,-3.7024,-3.707,-3.7067,-3.7138,-3.7172,-3.7211,-3.7246,-3.7244,-3.7283,-3.7279,-3.7291,-3.73,-3.7364,-3.7382,-3.735,-3.746,-3.7432,-3.744,-3.7445,-3.7454,-3.7461,-3.7455,-3.7329,0,0,0,0,0,-3.7009,-3.7064,-3.7062,-3.7076,-3.7154,-3.7213,-3.7223,-3.7234,-3.7215,-3.7242,-3.7262,-3.7255,-3.7368,-3.734,-3.7353,-3.7389,-3.7501,-3.7506,-3.7511,-3.7535,-3.7544,-3.7552,0,0,0,0,0,0,-3.7015,-3.7033,-3.706,-3.7102,-3.7119,-3.7211,-3.718,-3.7185,-3.7212,-3.721,-3.7251,-3.7256,-3.7266,-3.7333,-3.7346,-3.7379,-3.7325,-3.7503,-3.7507,-3.7511,-3.7538,-3.7546,-3.7552,0,0,0,0,0,-3.7019,-3.7034,-3.7156,-3.7101,-3.7116,-3.7145,-3.7178,-3.7182,-3.7203,-3.7234,-3.7239,-3.7209,-3.7267,-3.7278,-3.734,-3.7373,-3.7316,-3.7321,-3.7506,-3.7509,-3.7512,-3.7542,0,0,0,0,0,0,-3.7023,-3.7037,-3.7159,-3.7164,-3.7081,-3.714,-3.7149,-3.7179,-3.7226,-3.7231,-3.7192,-3.719,-3.7268,-3.7276,-3.7285,-3.737,-3.7309,-3.7314,-3.7317,-3.7509,-3.7511,-3.7514,0,0,0,0,0,0,-3.703,-3.7042,-3.7162,-3.7136,-3.7138,-3.7135,-3.7144,-3.7198,-3.7226,-3.7181,-3.7181,-3.7191,-3.7254,-3.7275,-3.7282,-3.7367,-3.7304,-3.7308,-3.7311,-3.7313,-3.7511,-3.7513,0,0,0,0,0,0,-3.7035,-3.7045,-3.7135,-3.7136,-3.7138,-3.7196,-3.7183,-3.7262,-3.7205,-3.7179,-3.72,-3.7198,-3.7254,-3.7261,-3.728,-3.7362,-3.7365,-3.7304,-3.7307,-3.7309,-3.7311,0,0,0,0,0,0,0,-3.7039,-3.6967,-3.713,-3.7137,-3.7138,-3.7211,-3.7213,-3.7214,-3.7205,-3.7203,-3.7201,-3.7199,-3.7278,-3.7283,-3.7288,-3.7358,0,0,-3.7304,-3.7306,0,0,0,0,0,0,0,0,-3.6963,-3.6966,-3.713,-3.7131,-3.7132,-3.7211,-3.7213,-3.7214,-3.7204,-3.7203,-3.7201,-3.72,-3.728,-3.7284,-3.7288,0,0,0,0,0,0,0,0,0,0,0,0,0,0,0,-3.713,-3.7131,0,-3.7212,-3.7213,-3.7213,-3.7204,-3.7203,-3.7201,-3.72,-3.7281,-3.7284,-3.7287,0,0,0,0,0,0,0,0,0,0,0,0,0,0,0,0,0,0,0,0,0,0,0,0,0,0,0,0,0,0,0,0,0,0,0,0,0,0,0,0,0,0,0,0,0,0,0,0,0,0,0,0,0,0,0,0,0,0,0,0,0,0,0,0,0,0,0,0,0]}]]]